Weather in Oktemtsy

Russia / Sakha (Yakutia) Republic     61°40′26″N   129°25′31″E
temp.,
°C
wind,
m/s
gust,
m/s
humid.,
%
clouds,
%
prec.,
mm/h
press.,
hPa
HPBL,
m
13 may, thu
thu1300:00+6nne1183100 0.3 100923
03:00+4nnw2485100 0.4 100992
06:00+4nnw367396 0.0 1010309
09:00+7nnw335384 0.0 1010773
12:00+11nnw333571 0.0 10101464
15:00+12n332858 0.0 10091874
18:00+12n23305 0.0 10091941
21:00+6n225264 0.0 101118
14 may, fri
fri1400:00+4n226670 0.0 101224
03:00+2n226940 0.0 101314
06:00+4n125848 0.0 1014159
09:00+10nnw12405 0.0 1013967
12:00+13nnw22275 0.0 10121720
15:00+14n222368 0.0 10101967
18:00+13nne222565 0.0 10102073
21:00+8ne114298 0.0 101010
15 may, sat
sat1500:00+6n114567 0.0 101010
03:00+5nne115159 0.0 101011
06:00+7nne125125 0.0 1009127
09:00+12ne23365 0.0 1009927
12:00+15ne223089 0.0 10072398
15:00+16ne322783 0.0 10052706
18:00+15e333047 0.0 10052268
21:00+8ese27570 0.0 1006120
16 may, sun
sun1600:00+6nne117314 0.0 100612
03:00+4ne22895 0.0 100618
06:00+7ese24745 0.0 1006261
09:00+11ese455380 0.0 10041073
12:00+13ese5645100 0.0 10031876
15:00+12se5651100 0.0 10031383
18:00+11se5758100 0.0 10031212
21:00+9sse4966100 0.0 1003958
17 may, mon
mon1700:00+7se51160100 0.0 1002732
03:00+5se41066100 0.0 1002571
06:00+5se41063100 0.0 1001661
09:00+8se5852100 0.0 10001163
12:00+11se5745100 0.0 9991797
15:00+9s4663100 0.3 9991224
18:00+6sw2392100 1.9 1000472
21:00+3nw4996100 6.3 1001433